�N����,����,�~����,�C��,���x,�C��,����,���ϕ���,�ő�u�ԕ���,�ő厞����,���˗�,�I�_���x,�n�����x
"22/06/01","01:00",0.0,13.5,84.4,1005.5,297.9,1.5,4.7,316.5,0.00,11.0,19.3
"22/06/01","02:00",0.0,12.9,87.7,1005.0,324.0,1.7,3.2,341.1,0.00,11.0,19.0
"22/06/01","03:00",0.0,13.4,88.1,1005.5,314.6,1.7,5.2,328.4,0.00,11.5,18.7
"22/06/01","04:00",0.0,12.9,89.0,1006.0,329.1,1.8,4.4,334.8,0.00,11.2,18.6
"22/06/01","05:00",0.0,12.7,90.9,1006.0,312.2,2.8,4.1,332.0,0.00,11.3,18.2
"22/06/01","06:00",0.0,12.9,91.5,1006.2,313.8,2.1,3.9,327.4,0.02,11.6,18.3
"22/06/01","07:00",0.0,15.3,91.1,1006.4,276.9,0.5,2.8,340.8,0.34,13.9,17.9
"22/06/01","08:00",0.0,18.5,80.0,1006.4,225.5,0.3,1.7,337.2,1.32,15.0,18.1
"22/06/01","09:00",0.0,21.4,65.2,1005.2,356.8,0.8,1.8,359.3,2.30,14.6,17.7
"22/06/01","10:00",0.0,23.6,59.6,1004.1,132.3,1.1,2.6,350.6,2.30,15.3,18.1
"22/06/01","11:00",0.0,24.6,44.6,1002.9,176.1,1.3,4.0,215.7,2.76,11.8,18.5
"22/06/01","12:00",0.0,26.1,42.6,1003.1,200.9,0.7,3.9,215.8,2.54,12.5,18.7
"22/06/01","13:00",0.0,26.0,37.2,1002.2,171.0,1.1,3.6,126.3,1.84,10.3,18.7
"22/06/01","14:00",0.0,26.2,38.2,1001.7,212.6,1.2,2.9,239.1,1.72,10.9,19.0
"22/06/01","15:00",0.0,26.9,35.4,1001.7,217.8,1.2,2.6,237.3,1.77,10.4,19.4
"22/06/01","16:00",0.0,27.4,35.0,1001.2,101.6,0.8,3.5,218.4,1.70,10.6,19.5
"22/06/01","17:00",0.0,26.7,36.6,1000.5,273.4,0.8,3.4,229.6,0.98,10.7,19.8
"22/06/01","18:00",0.0,25.2,43.1,1000.0,210.2,1.0,2.7,233.8,0.51,11.8,20.1
"22/06/01","19:00",0.0,23.7,55.1,1000.5,293.3,1.0,3.2,347.7,0.20,14.2,19.9
"22/06/01","20:00",0.0,20.5,64.6,1001.2,296.8,1.3,3.1,348.2,0.03,13.6,19.9
"22/06/01","21:00",0.0,19.0,69.0,1001.9,313.7,1.5,2.8,318.3,0.00,13.2,19.7
"22/06/01","22:00",0.0,17.3,74.9,1002.4,312.2,1.6,2.6,315.1,0.00,12.9,19.4
"22/06/01","23:00",0.0,16.7,78.2,1002.2,293.6,1.2,2.2,320.1,0.00,12.9,19.5
"22/06/01","24:00",0.0,15.8,82.0,1002.4,308.9,1.7,2.4,322.7,0.00,12.8,19.2
"22/06/02","01:00",0.0,15.4,84.3,1002.2,326.5,1.3,2.0,308.3,0.00,12.8,18.7
"22/06/02","02:00",0.0,14.3,87.2,1002.4,310.2,0.7,1.9,321.6,0.00,12.2,18.6
"22/06/02","03:00",0.0,13.7,89.7,1002.4,316.6,1.0,2.0,322.3,0.00,12.1,18.4
"22/06/02","04:00",0.0,13.5,91.1,1002.6,296.9,0.8,2.1,313.5,0.00,12.1,18.2
"22/06/02","05:00",0.0,12.6,92.3,1003.4,302.7,1.2,2.0,325.3,0.00,11.4,17.8
"22/06/02","06:00",0.0,13.1,93.0,1003.8,301.4,0.7,2.5,322.2,0.00,12.0,17.6
"22/06/02","07:00",0.0,16.9,92.7,1004.8,333.2,1.0,1.7,333.3,0.21,15.8,17.4
"22/06/02","08:00",0.0,20.7,74.6,1004.5,296.4,0.6,1.4,335.0,1.00,16.1,17.4
"22/06/02","09:00",0.0,23.6,61.3,1002.9,142.6,0.6,2.1,113.3,1.87,15.8,17.6
"22/06/02","10:00",0.0,25.5,58.2,1002.6,200.8,1.0,2.6,3.2,2.66,16.7,17.8
"22/06/02","11:00",0.0,27.9,46.7,1002.6,116.5,1.0,2.6,359.6,3.23,15.5,17.9
"22/06/02","12:00",0.0,28.7,46.4,1002.4,155.6,1.5,4.7,173.6,3.55,16.1,18.6
"22/06/02","13:00",0.0,29.1,42.8,1001.7,215.9,2.0,5.8,212.4,3.62,15.2,19.0
"22/06/02","14:00",0.0,30.3,37.0,1001.0,168.2,2.0,5.5,145.2,3.49,14.0,19.3
"22/06/02","15:00",0.0,30.3,34.8,1000.8,174.3,2.3,5.2,217.5,3.05,13.1,19.6
"22/06/02","16:00",0.0,30.8,31.0,1000.5,274.1,1.6,5.7,226.5,2.41,11.8,20.0
"22/06/02","17:00",0.0,30.4,34.1,1000.5,242.0,1.5,4.2,235.1,1.68,12.9,20.2
"22/06/02","18:00",0.0,29.3,31.8,1000.3,248.4,1.8,4.8,198.8,0.46,10.9,20.6
"22/06/02","19:00",0.0,27.3,32.9,999.3,266.0,1.3,4.0,230.5,0.08,9.6,20.5
"22/06/02","20:00",0.0,23.5,45.4,1001.0,333.9,3.2,5.1,345.9,0.00,11.1,20.5
"22/06/02","21:00",0.0,22.0,52.4,1002.9,350.0,1.0,4.5,310.7,0.00,11.9,20.4
"22/06/02","22:00",0.0,19.5,60.9,1003.6,314.6,1.8,4.2,334.3,0.00,11.8,20.2
"22/06/02","23:00",0.0,18.1,65.9,1003.8,314.7,1.7,3.4,331.4,0.00,11.7,19.8
"22/06/02","24:00",0.0,17.8,69.7,1003.1,323.2,3.0,5.1,316.4,0.00,12.2,19.7
"22/06/03","01:00",0.0,16.8,72.3,1003.6,282.8,0.7,4.0,335.4,0.00,11.8,19.3
"22/06/03","02:00",0.0,16.8,78.8,1003.6,307.6,2.0,3.7,305.9,0.00,13.1,19.2
"22/06/03","03:00",0.0,16.1,81.5,1003.4,307.5,1.3,2.8,321.3,0.00,13.0,18.7
"22/06/03","04:00",0.0,15.8,83.9,1003.8,302.5,1.3,2.8,338.4,0.00,13.1,18.8
"22/06/03","05:00",0.0,15.3,86.4,1004.5,293.6,1.2,2.1,319.3,0.00,13.1,18.5
"22/06/03","06:00",0.0,15.5,88.7,1004.8,310.8,1.3,2.0,323.5,0.00,13.7,18.5
"22/06/03","07:00",0.0,18.9,88.2,1005.2,334.5,1.0,2.2,329.6,0.27,16.9,18.2
"22/06/03","08:00",0.0,22.6,73.8,1005.0,348.4,0.6,1.8,336.3,0.94,17.7,18.0
"22/06/03","09:00",0.0,24.8,65.4,1003.8,135.8,0.6,2.1,353.6,1.73,17.9,18.3
"22/06/03","10:00",0.0,26.6,61.1,1003.1,129.5,0.6,3.1,127.5,2.47,18.5,18.5
"22/06/03","11:00",0.0,28.1,53.6,1003.4,117.6,1.6,3.4,238.3,3.12,17.8,18.8
"22/06/03","12:00",0.0,29.2,45.4,1002.9,250.6,1.5,5.2,238.5,3.31,16.2,19.4
"22/06/03","13:00",0.0,29.9,38.9,1002.6,337.4,2.5,5.2,346.6,3.41,14.5,19.6
"22/06/03","14:00",0.0,30.4,33.4,1001.7,303.0,2.6,6.7,239.6,3.50,12.6,19.7
"22/06/03","15:00",0.0,30.2,43.2,1001.7,352.3,2.5,5.1,310.0,2.98,16.4,20.1
"22/06/03","16:00",0.0,29.6,46.4,1000.5,352.4,2.6,6.5,350.2,1.67,16.9,20.4
"22/06/03","17:00",0.0,27.1,55.0,1000.8,1.0,3.6,8.0,16.6,1.58,17.3,20.6
"22/06/03","18:00",0.0,25.8,53.6,1001.5,344.4,3.7,7.2,354.3,0.61,15.7,20.7
"22/06/03","19:00",0.0,24.2,57.5,1003.1,344.9,3.2,8.8,339.3,0.18,15.3,20.7
"22/06/03","20:00",0.0,21.5,64.3,1004.1,331.1,3.5,9.1,339.8,0.00,14.5,20.6
"22/06/03","21:00",0.0,20.4,66.9,1004.8,346.9,2.5,7.1,345.6,0.00,14.1,20.6
"22/06/03","22:00",0.0,19.4,69.1,1005.7,250.1,1.2,6.7,347.7,0.00,13.6,20.2
"22/06/03","23:00",0.0,18.7,72.0,1006.4,336.8,1.0,6.5,348.3,0.00,13.6,20.1
"22/06/03","24:00",0.0,17.2,78.7,1006.4,323.2,1.3,2.5,322.7,0.00,13.5,19.7
"22/06/04","01:00",0.0,16.4,82.2,1006.9,319.7,1.8,3.7,343.4,0.00,13.4,19.5
"22/06/04","02:00",0.0,16.3,80.5,1007.1,318.2,1.2,4.3,293.1,0.00,13.0,19.2
"22/06/04","03:00",0.0,16.0,81.7,1007.6,297.7,1.1,4.1,336.5,0.00,12.9,19.2
"22/06/04","04:00",0.0,14.7,85.0,1007.8,306.3,1.5,2.5,321.4,0.00,12.2,19.0
"22/06/04","05:00",0.0,14.4,88.4,1007.6,324.6,1.8,2.7,331.4,0.00,12.5,18.7
"22/06/04","06:00",0.0,15.7,86.3,1008.1,328.9,1.7,4.5,314.5,0.01,13.5,18.6
"22/06/04","07:00",0.0,17.3,81.4,1008.6,322.3,2.5,4.7,318.0,0.20,14.1,18.5
"22/06/04","08:00",0.0,20.0,73.0,1008.6,321.2,1.2,3.5,330.4,0.61,15.1,18.5
"22/06/04","09:00",0.0,22.0,61.4,1007.8,344.9,2.8,6.8,350.6,1.71,14.3,18.5
"22/06/04","10:00",0.0,23.5,53.9,1007.1,2.9,2.5,5.7,349.0,2.53,13.7,18.5
"22/06/04","11:00",0.0,25.5,47.7,1006.4,54.4,1.3,4.8,81.2,3.27,13.6,18.9
"22/06/04","12:00",0.0,26.2,46.6,1005.0,215.0,1.8,3.5,352.0,3.59,13.9,19.3
"22/06/04","13:00",0.0,26.8,46.7,1005.0,198.0,2.7,6.0,229.1,3.76,14.5,19.5
"22/06/04","14:00",0.0,27.2,44.4,1003.8,326.3,2.6,4.9,339.1,3.25,14.1,19.9
"22/06/04","15:00",0.0,28.0,42.3,1003.4,306.7,2.3,5.7,237.1,3.20,14.1,20.2
"22/06/04","16:00",0.0,28.8,40.5,1003.6,311.1,1.5,5.6,348.1,2.58,14.1,20.5
"22/06/04","17:00",0.0,28.3,40.5,1003.4,280.5,1.6,5.8,322.0,1.80,13.7,20.9
"22/06/04","18:00",0.0,25.9,46.8,1003.6,346.2,2.5,6.0,336.5,0.56,13.7,20.9
"22/06/04","19:00",0.0,23.0,52.9,1004.8,351.4,3.0,7.2,2.3,0.07,12.9,20.9
"22/06/04","20:00",0.0,20.5,61.7,1005.7,333.5,1.8,5.8,353.4,0.01,12.9,20.9
"22/06/04","21:00",0.0,19.0,67.1,1006.7,331.0,1.3,3.5,346.2,0.00,12.8,20.7
"22/06/04","22:00",0.0,18.3,70.9,1006.9,331.4,2.3,4.4,331.0,0.00,13.0,20.4
"22/06/04","23:00",0.0,17.6,76.0,1006.9,334.0,2.8,5.5,346.0,0.00,13.4,20.2
"22/06/04","24:00",0.0,17.2,78.1,1006.2,331.1,2.7,5.1,337.4,0.00,13.4,19.9
"22/06/05","01:00",0.0,16.8,80.2,1006.7,332.2,2.8,5.4,344.1,0.00,13.4,19.9
"22/06/05","02:00",0.0,16.9,80.5,1006.2,333.4,3.0,5.0,341.0,0.00,13.6,19.5
"22/06/05","03:00",0.0,16.5,81.4,1006.4,323.4,2.7,6.0,335.0,0.00,13.3,19.5
"22/06/05","04:00",0.0,15.8,83.4,1006.2,310.8,2.5,4.5,294.8,0.00,13.0,19.5
"22/06/05","05:00",0.0,15.6,83.0,1006.4,307.9,2.2,4.2,318.2,0.00,12.8,19.1
"22/06/05","06:00",0.0,14.9,85.1,1005.7,294.0,1.2,3.5,322.6,0.00,12.5,19.0
"22/06/05","07:00",0.0,18.3,81.0,1005.5,345.4,1.0,2.6,337.3,0.27,15.0,18.8
"22/06/05","08:00",0.0,21.2,67.6,1005.0,6.4,0.8,2.2,350.7,0.94,15.0,18.7
"22/06/05","09:00",0.0,23.7,61.8,1004.3,169.8,0.8,1.9,207.5,1.66,16.0,18.8
"22/06/05","10:00",0.0,24.3,59.1,1003.4,215.1,0.6,2.2,107.7,1.68,15.8,19.0
"22/06/05","11:00",0.0,26.2,55.4,1002.6,11.8,0.7,2.5,348.9,1.74,16.6,19.2
"22/06/05","12:00",0.0,27.7,47.7,1002.6,212.6,1.1,3.5,230.9,2.65,15.6,19.4
"22/06/05","13:00",0.0,26.3,50.5,1001.5,185.2,1.1,4.4,193.2,1.88,15.3,19.9
"22/06/05","14:00",0.0,25.8,51.8,1001.2,235.3,2.3,4.2,234.3,0.85,15.2,20.1
"22/06/05","15:00",0.0,25.3,57.3,1000.5,274.5,1.3,4.8,240.9,0.68,16.3,20.0
"22/06/05","16:00",0.0,24.9,61.0,1000.8,331.7,1.6,5.1,338.2,0.49,16.9,19.9
"22/06/05","17:00",0.0,24.1,63.0,1001.0,294.1,1.2,3.4,348.3,0.13,16.7,20.0
"22/06/05","18:00",0.0,24.0,64.9,1000.3,273.3,0.5,2.2,32.3,0.12,17.0,20.2
"22/06/05","19:00",0.0,22.7,74.0,1000.8,333.5,1.5,2.0,335.4,0.02,17.9,20.1
"22/06/05","20:00",0.2,20.4,84.8,1001.0,292.5,1.2,3.3,332.7,0.00,17.8,20.2
"22/06/05","21:00",0.2,19.9,88.3,1001.2,293.2,1.1,2.0,328.6,0.00,17.9,19.9
"22/06/05","22:00",1.2,19.5,90.6,1001.2,275.7,0.3,1.7,252.6,0.00,18.0,19.8
"22/06/05","23:00",2.2,19.3,92.0,1000.3,293.8,1.1,2.2,310.3,0.00,18.0,19.7
"22/06/05","24:00",3.2,18.7,93.1,999.8,282.6,0.7,2.2,322.0,0.00,17.6,19.6
"22/06/06","01:00",0.6,18.9,93.7,998.4,343.2,0.6,1.4,105.5,0.00,17.9,19.6
"22/06/06","02:00",1.0,18.6,94.1,996.7,1.9,0.5,2.4,137.1,0.00,17.7,19.4
"22/06/06","03:00",4.0,17.6,94.5,995.6,114.3,0.8,2.5,72.3,0.00,16.7,19.2
"22/06/06","04:00",4.0,17.3,94.9,994.1,18.7,0.7,2.4,81.8,0.00,16.5,19.1
"22/06/06","05:00",9.4,17.1,95.3,994.4,358.7,0.8,3.9,143.7,0.00,16.4,18.7
"22/06/06","06:00",9.0,17.2,95.7,992.7,101.2,1.2,4.1,60.8,0.00,16.5,18.1
"22/06/06","07:00",6.2,17.6,95.8,991.5,136.3,1.1,4.0,63.8,0.00,17.0,18.0
"22/06/06","08:00",2.0,18.0,95.9,990.4,116.8,1.0,4.3,139.8,0.06,17.4,18.4
"22/06/06","09:00",1.0,18.3,95.9,989.6,104.6,1.3,4.0,152.6,0.04,17.7,18.3
"22/06/06","10:00",3.2,18.4,95.9,989.4,122.5,1.0,3.3,124.6,0.12,17.8,18.5
"22/06/06","11:00",3.8,18.5,96.0,989.2,63.3,1.1,2.7,141.6,0.33,17.9,18.3
"22/06/06","12:00",1.4,19.0,95.6,988.2,109.8,0.8,4.1,117.9,0.54,18.3,18.6
"22/06/06","13:00",0.4,19.4,95.3,987.5,103.2,0.8,3.5,114.9,0.53,18.7,18.6
"22/06/06","14:00",0.4,19.8,94.2,987.0,134.9,1.1,3.5,164.6,0.42,18.9,18.6
"22/06/06","15:00",1.0,19.9,93.5,987.0,349.1,1.2,3.4,123.9,0.45,18.9,18.8
"22/06/06","16:00",0.8,20.0,93.5,987.5,30.9,0.5,2.8,354.0,0.54,19.0,19.0
"22/06/06","17:00",0.6,19.6,93.7,987.3,138.3,0.5,1.7,136.3,0.29,18.6,19.1
"22/06/06","18:00",0.4,19.0,94.3,988.0,333.1,0.8,1.9,341.6,0.05,18.1,19.2
"22/06/06","19:00",0.2,18.8,94.8,988.7,318.3,0.6,2.0,338.5,0.00,18.0,19.2
"22/06/06","20:00",1.2,18.4,95.3,989.4,337.6,1.3,2.6,323.6,0.00,17.7,19.2
"22/06/06","21:00",2.8,17.9,95.8,989.9,292.9,0.7,2.8,334.3,0.00,17.3,19.1
"22/06/06","22:00",0.2,17.9,96.2,990.4,272.0,0.5,1.6,349.1,0.00,17.3,18.9
"22/06/06","23:00",0.0,18.1,96.3,990.6,284.6,1.1,2.4,221.2,0.00,17.5,19.2
"22/06/06","24:00",0.0,17.8,96.6,991.5,318.8,1.0,3.1,310.7,0.00,17.3,19.0
"22/06/07","01:00",0.0,17.5,95.5,991.8,297.6,1.7,3.7,327.0,0.00,16.8,19.0
"22/06/07","02:00",0.0,17.5,92.8,992.7,290.2,2.0,4.9,246.4,0.00,16.4,19.1
"22/06/07","03:00",0.0,17.6,88.9,993.2,289.8,1.8,5.7,331.0,0.00,15.8,18.9
"22/06/07","04:00",0.0,17.3,87.8,993.9,288.0,1.7,4.7,300.1,0.00,15.3,18.8
"22/06/07","05:00",0.0,17.2,87.5,995.1,283.8,1.8,5.4,228.6,0.00,15.1,18.7
"22/06/07","06:00",0.0,16.9,89.7,996.0,281.9,1.6,3.9,243.3,0.01,15.2,18.5
"22/06/07","07:00",0.0,18.3,86.1,996.0,295.8,1.5,4.5,308.1,0.26,16.0,18.7
"22/06/07","08:00",0.0,19.8,78.5,997.0,310.3,2.2,5.8,312.0,1.13,16.0,18.8
"22/06/07","09:00",0.0,20.2,76.8,996.7,281.1,2.2,5.6,317.0,1.10,16.0,18.7
"22/06/07","10:00",0.0,20.7,77.7,997.2,300.2,2.8,6.5,343.3,1.77,16.7,18.7
"22/06/07","11:00",0.0,21.5,75.6,997.7,331.7,3.1,7.0,314.9,2.84,17.1,18.9
"22/06/07","12:00",0.0,21.1,72.1,998.2,8.0,2.8,6.2,242.7,2.17,15.9,19.2
"22/06/07","13:00",0.6,21.2,75.5,998.2,324.5,4.0,8.3,346.0,2.34,16.7,19.4
"22/06/07","14:00",0.0,21.2,69.6,998.4,327.5,4.0,10.1,340.5,2.68,15.5,19.3
"22/06/07","15:00",0.0,20.8,70.1,998.6,330.2,3.6,8.3,345.0,1.56,15.2,19.6
"22/06/07","16:00",0.0,21.1,70.7,999.3,335.1,2.1,5.8,344.0,1.03,15.6,19.6
"22/06/07","17:00",0.2,19.5,79.5,1000.5,327.5,2.0,5.8,349.1,0.53,15.9,19.7
"22/06/07","18:00",0.0,18.9,78.5,1001.2,334.3,1.8,5.1,356.6,0.42,15.1,19.7
"22/06/07","19:00",0.0,18.0,76.6,1002.4,353.8,2.0,4.4,328.5,0.18,13.9,19.9
"22/06/07","20:00",0.0,16.6,79.2,1002.4,329.6,3.2,5.0,339.8,0.01,13.0,19.6
"22/06/07","21:00",0.0,16.6,77.2,1002.9,338.5,3.2,7.8,332.5,0.00,12.6,19.4
"22/06/07","22:00",0.0,15.7,80.5,1003.6,325.4,2.3,6.2,326.0,0.00,12.4,19.2
"22/06/07","23:00",0.0,14.8,84.1,1004.1,286.1,1.2,3.4,311.9,0.00,12.2,19.1
"22/06/07","24:00",0.0,13.7,87.8,1004.1,292.8,1.0,2.1,342.3,0.00,11.8,19.1
"22/06/08","01:00",0.0,13.1,90.8,1004.1,267.2,1.1,2.2,336.9,0.00,11.7,18.4
"22/06/08","02:00",0.0,12.7,92.7,1003.8,315.7,1.6,2.5,337.9,0.00,11.6,18.7
"22/06/08","03:00",0.0,13.1,93.8,1004.5,332.0,1.8,3.7,321.8,0.00,12.2,18.3
"22/06/08","04:00",0.0,12.3,94.6,1004.5,282.1,0.5,2.1,324.4,0.00,11.5,18.3
"22/06/08","05:00",0.0,12.2,95.3,1005.2,301.7,1.6,2.4,309.4,0.00,11.5,18.0
"22/06/08","06:00",0.0,12.3,95.8,1006.2,301.9,1.0,2.4,330.2,0.00,11.7,18.0
"22/06/08","07:00",0.0,16.6,95.4,1006.7,331.8,0.6,1.9,322.5,0.18,15.9,17.6
"22/06/08","08:00",0.0,17.9,91.1,1006.7,182.8,0.7,1.9,350.3,1.04,16.5,17.7
"22/06/08","09:00",0.0,21.1,70.3,1005.7,156.7,1.1,2.8,126.6,2.01,15.5,17.8
"22/06/08","10:00",0.0,21.4,65.8,1005.5,319.5,1.7,4.5,236.8,2.13,14.8,17.9
"22/06/08","11:00",0.0,22.8,60.5,1005.2,336.2,1.2,4.1,336.4,2.18,14.8,18.1
"22/06/08","12:00",0.0,24.2,59.2,1005.0,217.6,1.6,4.2,345.8,2.31,15.8,18.2
"22/06/08","13:00",0.0,24.4,58.5,1004.5,252.7,1.5,4.9,347.9,2.50,15.8,18.5
"22/06/08","14:00",0.0,23.6,60.1,1003.8,356.5,1.5,5.8,329.3,2.09,15.5,18.8
"22/06/08","15:00",0.0,24.8,52.3,1003.6,0.7,1.1,2.6,343.7,1.55,14.4,18.9
"22/06/08","16:00",0.0,25.5,54.8,1002.9,352.6,2.1,6.2,338.0,2.25,15.8,19.2
"22/06/08","17:00",0.0,23.3,61.6,1003.8,350.4,2.5,7.0,342.3,1.02,15.6,19.4
"22/06/08","18:00",0.0,23.2,61.7,1004.1,343.9,2.3,5.0,351.5,0.42,15.5,19.5
"22/06/08","19:00",0.0,22.3,64.1,1005.0,344.5,2.7,5.9,0.8,0.26,15.2,19.4
"22/06/08","20:00",0.0,19.8,72.1,1006.0,328.9,2.0,5.7,332.3,0.00,14.7,19.7
"22/06/08","21:00",0.0,18.8,75.8,1006.9,334.4,2.6,5.4,349.6,0.00,14.5,19.5
"22/06/08","22:00",0.0,18.1,77.3,1008.1,315.5,1.8,5.1,348.1,0.00,14.1,19.4
"22/06/08","23:00",0.0,16.9,82.5,1008.1,336.5,1.8,4.0,319.2,0.00,13.9,19.2
"22/06/08","24:00",0.0,16.6,85.7,1008.3,329.2,2.6,4.7,332.5,0.00,14.2,18.9
"22/06/09","01:00",0.0,15.9,87.9,1008.6,329.9,2.2,5.1,347.4,0.00,13.9,18.9
"22/06/09","02:00",0.0,15.1,89.0,1008.6,338.7,2.2,4.3,329.5,0.00,13.3,18.7
"22/06/09","03:00",0.0,14.9,90.1,1008.6,332.2,2.6,4.2,332.9,0.00,13.3,18.8
"22/06/09","04:00",0.0,14.5,90.7,1008.8,311.2,2.7,4.3,341.8,0.00,13.0,18.6
"22/06/09","05:00",0.0,14.8,91.1,1008.8,329.4,3.2,5.2,326.2,0.00,13.4,18.4
"22/06/09","06:00",0.0,14.7,92.0,1009.0,327.6,3.5,5.7,342.2,0.00,13.5,18.3
"22/06/09","07:00",0.0,16.2,90.5,1009.7,326.1,2.8,4.9,344.3,0.26,14.7,18.2
"22/06/09","08:00",0.0,19.9,79.8,1010.0,354.7,1.0,4.5,349.8,1.05,16.4,18.1
"22/06/09","09:00",0.0,22.7,67.4,1009.0,94.9,0.6,2.9,337.0,1.94,16.4,18.4
"22/06/09","10:00",0.0,24.7,60.0,1007.8,199.2,0.8,2.5,124.4,2.70,16.5,18.6
"22/06/09","11:00",0.0,27.0,56.9,1008.1,150.6,0.8,3.2,241.9,3.26,17.8,18.7
"22/06/09","12:00",0.0,28.5,46.2,1007.8,82.9,1.0,3.1,209.9,3.58,15.9,18.8
"22/06/09","13:00",0.0,29.0,46.9,1007.4,216.0,1.3,4.0,354.6,3.71,16.6,19.1
"22/06/09","14:00",0.0,28.8,41.2,1006.9,355.6,1.0,3.7,232.9,2.62,14.4,19.6
"22/06/09","15:00",0.0,29.4,39.1,1006.2,217.1,2.2,4.1,234.7,2.86,14.1,19.8
"22/06/09","16:00",0.0,29.2,43.0,1005.2,242.5,2.1,4.5,243.1,2.03,15.4,20.2
"22/06/09","17:00",0.0,29.1,41.5,1005.2,260.0,1.7,4.8,221.6,1.80,14.7,20.4
"22/06/09","18:00",0.0,27.6,47.7,1004.5,197.6,2.3,5.0,200.4,0.42,15.6,20.5
"22/06/09","19:00",0.0,26.1,53.2,1006.0,184.2,2.0,4.3,209.4,0.14,15.9,20.5
"22/06/09","20:00",0.0,23.7,63.4,1007.4,342.1,1.5,4.4,223.0,0.00,16.4,20.4
"22/06/09","21:00",0.0,21.7,70.1,1008.3,331.8,2.1,3.2,297.7,0.00,16.1,20.5
"22/06/09","22:00",0.0,20.9,75.1,1009.5,324.2,1.5,3.5,328.4,0.00,16.4,20.2
"22/06/09","23:00",0.0,20.2,77.6,1009.7,322.6,2.1,3.1,319.8,0.00,16.2,20.1
"22/06/09","24:00",0.0,18.9,82.9,1009.5,314.0,1.7,3.1,323.8,0.00,16.0,20.1
"22/06/10","01:00",0.0,18.7,85.0,1009.0,295.6,1.1,3.1,332.6,0.00,16.2,19.8
"22/06/10","02:00",0.0,19.0,84.8,1009.7,315.2,1.1,2.9,348.5,0.00,16.4,19.9
"22/06/10","03:00",0.0,19.2,84.5,1009.0,312.7,1.5,2.5,315.9,0.00,16.6,19.5
"22/06/10","04:00",0.0,19.4,84.7,1009.7,309.2,1.5,2.2,323.4,0.00,16.8,19.7
"22/06/10","05:00",0.0,19.0,85.8,1010.4,321.6,1.6,3.1,332.6,0.00,16.6,19.4
"22/06/10","06:00",0.0,18.6,87.8,1010.9,293.6,1.1,2.2,328.0,0.00,16.6,19.6
"22/06/10","07:00",0.0,20.8,88.1,1010.7,338.1,0.7,2.1,326.2,0.25,18.8,19.4
"22/06/10","08:00",0.0,23.9,75.3,1010.2,321.4,0.6,1.6,345.0,0.93,19.3,19.4
"22/06/10","09:00",0.0,24.5,70.3,1010.2,215.8,1.1,3.1,215.8,1.58,18.8,19.4
"22/06/10","10:00",0.0,25.3,68.0,1009.3,190.9,1.2,3.9,159.5,1.87,19.0,19.6
"22/06/10","11:00",0.0,27.3,62.1,1009.3,220.9,1.7,4.5,191.3,2.87,19.4,19.8
"22/06/10","12:00",0.0,29.3,58.1,1008.8,168.3,1.8,4.7,210.0,3.54,20.3,20.0
"22/06/10","13:00",0.0,29.3,53.8,1008.6,152.2,1.2,4.0,150.0,3.09,19.0,20.3
"22/06/10","14:00",0.0,29.2,50.3,1007.8,156.7,1.5,5.1,230.9,2.37,17.8,20.6
"22/06/10","15:00",0.0,28.9,48.9,1006.9,234.6,1.5,5.0,196.7,1.53,17.1,20.7
"22/06/10","16:00",0.0,28.7,52.0,1006.7,234.4,0.6,3.2,250.8,0.65,17.9,21.0
"22/06/10","17:00",0.0,28.8,46.5,1006.7,197.5,2.1,4.4,135.4,1.24,16.2,20.9
"22/06/10","18:00",0.0,27.4,52.7,1006.2,253.6,1.6,4.2,189.0,0.54,16.9,21.2
"22/06/10","19:00",0.0,25.6,60.8,1007.6,204.3,1.1,3.5,241.9,0.15,17.5,21.0
"22/06/10","20:00",0.0,24.3,66.5,1009.3,306.9,1.7,4.1,236.8,0.00,17.7,21.0
"22/06/10","21:00",0.0,23.5,66.5,1010.0,326.6,1.3,3.2,302.2,0.00,16.9,20.9
"22/06/10","22:00",0.0,22.2,72.1,1010.4,302.5,1.1,2.9,337.9,0.00,17.0,20.9
"22/06/10","23:00",0.0,21.1,78.0,1010.7,296.6,1.3,2.5,319.3,0.00,17.2,20.6
"22/06/10","24:00",0.0,20.2,82.0,1010.9,321.7,2.2,3.1,331.3,0.00,17.1,20.7
"22/06/11","01:00",0.0,20.1,82.2,1010.2,319.9,1.5,3.2,330.8,0.00,17.0,20.4
"22/06/11","02:00",0.0,19.8,84.7,1009.7,304.2,1.5,2.9,308.3,0.00,17.2,20.3
"22/06/11","03:00",0.0,19.9,84.0,1009.7,302.9,1.1,3.1,305.2,0.00,17.2,20.3
"22/06/11","04:00",0.0,19.6,86.7,1009.7,330.6,1.2,2.2,311.5,0.00,17.4,20.1
"22/06/11","05:00",0.0,19.8,87.7,1009.7,289.3,1.0,2.4,324.2,0.00,17.7,20.0
"22/06/11","06:00",0.0,20.0,88.1,1010.4,317.9,1.5,2.4,325.7,0.00,18.0,20.0
"22/06/11","07:00",0.0,21.1,87.7,1010.2,307.1,1.6,2.1,277.0,0.04,19.0,19.9
"22/06/11","08:00",0.0,22.5,83.8,1010.0,327.1,0.8,2.4,322.9,0.37,19.7,19.6
"22/06/11","09:00",0.0,23.0,78.6,1009.3,111.6,0.8,2.7,161.3,0.42,19.1,20.0
"22/06/11","10:00",0.0,24.2,75.8,1008.3,94.2,0.8,2.8,106.1,0.67,19.7,20.0
"22/06/11","11:00",0.0,24.6,72.2,1007.8,118.3,1.0,3.5,160.5,1.08,19.3,20.0
"22/06/11","12:00",0.0,24.9,70.1,1007.4,75.4,0.7,2.6,79.9,0.85,19.1,20.1
"22/06/11","13:00",0.0,24.3,72.3,1006.7,60.9,0.7,2.9,76.4,0.53,19.0,20.2
"22/06/11","14:00",0.0,24.4,71.5,1006.7,99.3,0.7,3.7,3.2,0.60,19.0,20.4
"22/06/11","15:00",0.0,24.2,72.8,1005.7,103.6,1.0,2.8,96.9,0.41,19.1,20.2
"22/06/11","16:00",0.0,22.6,80.4,1005.5,139.9,0.6,2.5,66.2,0.29,19.1,20.3
"22/06/11","17:00",0.4,21.9,84.1,1005.5,64.9,0.3,1.8,131.7,0.19,19.1,20.3
"22/06/11","18:00",0.4,20.6,87.0,1005.5,224.0,0.3,1.9,329.4,0.05,18.4,20.2
"22/06/11","19:00",0.8,20.3,89.0,1005.0,324.1,1.2,2.1,335.6,0.00,18.5,20.2
"22/06/11","20:00",0.2,19.4,91.4,1004.8,283.4,0.8,2.4,331.2,0.00,18.0,20.3
"22/06/11","21:00",0.2,19.2,92.8,1005.2,313.2,1.1,2.4,330.5,0.00,18.0,20.3
"22/06/11","22:00",0.8,18.9,93.7,1005.5,289.0,1.1,1.7,331.1,0.00,17.9,20.0
"22/06/11","23:00",0.4,18.4,94.3,1004.8,268.5,1.1,2.4,306.5,0.00,17.5,19.9
"22/06/11","24:00",0.0,18.1,94.8,1004.5,301.1,1.5,2.2,318.8,0.00,17.3,19.9
"22/06/12","01:00",0.0,17.9,94.9,1003.8,310.8,2.5,3.7,331.4,0.00,17.1,19.8
"22/06/12","02:00",0.0,18.1,94.6,1003.6,342.9,2.1,3.6,316.4,0.00,17.3,19.8
"22/06/12","03:00",0.0,18.2,94.1,1003.1,328.2,2.6,4.7,332.3,0.00,17.3,19.9
"22/06/12","04:00",0.0,17.8,93.9,1003.1,318.7,1.1,3.4,313.1,0.00,16.8,19.6
"22/06/12","05:00",0.0,17.8,94.2,1003.6,313.1,0.8,2.6,341.7,0.00,16.9,19.5
"22/06/12","06:00",0.0,18.2,94.4,1004.1,343.6,1.7,3.4,0.2,0.00,17.3,19.4
"22/06/12","07:00",0.0,20.0,89.3,1004.8,330.1,1.6,4.5,350.4,0.26,18.2,19.6
"22/06/12","08:00",0.0,21.8,72.0,1004.8,355.4,2.2,6.4,347.8,0.93,16.6,19.6
"22/06/12","09:00",0.0,22.0,69.4,1004.8,335.6,3.0,10.1,344.6,1.57,16.2,19.4
"22/06/12","10:00",0.0,22.9,65.1,1004.8,355.4,3.9,7.7,350.9,2.17,16.0,19.4
"22/06/12","11:00",0.0,23.6,62.0,1005.0,342.8,3.7,9.5,327.6,3.10,15.9,19.7
"22/06/12","12:00",0.0,23.4,57.1,1005.2,349.0,4.1,7.9,16.1,3.61,14.5,19.8
"22/06/12","13:00",0.0,24.0,55.9,1005.0,350.0,4.0,10.6,336.2,3.71,14.7,20.2
"22/06/12","14:00",0.0,24.2,52.7,1004.5,8.1,3.4,8.3,348.2,3.59,14.0,20.3
"22/06/12","15:00",0.0,24.4,52.5,1003.8,351.1,3.6,7.5,30.0,3.21,14.1,20.4
"22/06/12","16:00",0.0,24.2,50.7,1004.3,5.0,2.8,7.1,301.4,2.63,13.4,20.8
"22/06/12","17:00",0.0,23.9,53.3,1003.8,346.0,3.1,6.8,331.6,1.86,13.9,20.9
"22/06/12","18:00",0.0,21.7,58.4,1004.5,337.8,5.6,10.3,341.3,0.31,13.2,21.1
"22/06/12","19:00",0.0,20.4,62.8,1005.5,327.2,3.9,9.6,320.8,0.09,13.1,21.0
"22/06/12","20:00",0.0,18.5,69.6,1006.7,337.5,2.0,5.9,338.0,0.00,12.9,20.7
"22/06/12","21:00",0.0,17.9,72.6,1007.6,321.8,2.5,5.7,326.3,0.00,13.0,20.6
"22/06/12","22:00",0.0,17.3,75.1,1008.1,318.3,2.0,4.9,337.2,0.00,12.9,20.5
"22/06/12","23:00",0.0,16.5,78.8,1008.1,296.1,1.2,3.5,340.0,0.00,12.9,20.3
"22/06/12","24:00",0.0,16.9,78.0,1008.3,298.3,1.1,3.5,348.1,0.00,13.1,20.1
"22/06/13","01:00",0.0,16.1,82.6,1007.6,323.4,1.3,2.6,338.2,0.00,13.2,19.8
"22/06/13","02:00",0.0,16.2,84.1,1008.3,323.2,2.5,4.8,319.2,0.00,13.6,19.6
"22/06/13","03:00",0.0,15.6,85.6,1007.8,309.2,2.3,3.9,323.3,0.00,13.2,19.4
"22/06/13","04:00",0.0,15.6,86.6,1007.1,328.8,2.6,4.4,345.5,0.00,13.4,19.4
"22/06/13","05:00",0.0,15.8,86.6,1007.4,328.1,2.5,5.8,343.7,0.00,13.6,19.3
"22/06/13","06:00",0.0,16.1,86.8,1007.1,326.4,1.8,5.9,343.5,0.00,13.9,19.2
"22/06/13","07:00",0.0,16.8,86.2,1007.6,319.6,1.5,3.5,346.2,0.16,14.5,19.1
"22/06/13","08:00",0.0,18.3,81.2,1007.6,319.5,2.3,4.3,339.8,0.52,15.1,19.2
"22/06/13","09:00",0.0,21.9,68.8,1006.7,22.6,1.2,3.9,318.1,1.35,16.0,19.2
"22/06/13","10:00",0.0,25.1,58.5,1005.2,104.4,1.0,2.6,89.1,2.46,16.4,19.3
"22/06/13","11:00",0.0,25.1,55.0,1004.8,206.4,1.7,4.1,194.1,2.75,15.5,19.5
"22/06/13","12:00",0.0,25.9,55.0,1004.5,146.6,1.7,4.8,211.8,2.39,16.2,19.7
"22/06/13","13:00",0.0,26.9,46.1,1005.0,258.2,1.1,3.9,219.0,2.64,14.4,19.9
"22/06/13","14:00",0.0,27.0,43.0,1004.8,257.4,1.2,2.7,242.2,1.99,13.4,20.1
"22/06/13","15:00",0.0,26.5,42.9,1002.9,150.8,1.6,7.1,129.7,1.68,12.9,20.3
"22/06/13","16:00",0.0,25.6,48.9,1002.9,128.7,0.8,3.6,173.6,1.09,14.1,20.3
"22/06/13","17:00",0.0,25.6,50.9,1003.6,54.4,0.8,2.4,129.6,0.68,14.7,20.6
"22/06/13","18:00",0.0,24.1,56.9,1003.6,111.6,1.0,2.8,71.3,0.40,15.1,20.5
"22/06/13","19:00",0.0,23.3,58.9,1004.3,51.2,0.6,2.5,28.9,0.09,14.9,20.4
"22/06/13","20:00",0.0,22.3,64.6,1004.8,7.0,0.6,1.9,64.0,0.00,15.4,20.5
"22/06/13","21:00",0.0,21.4,68.2,1005.0,6.1,0.7,2.0,339.1,0.00,15.3,20.3
"22/06/13","22:00",0.0,21.3,66.8,1005.2,334.3,0.5,1.6,355.7,0.00,14.9,20.2
"22/06/13","23:00",0.0,21.0,70.5,1005.7,328.0,0.8,2.0,359.3,0.00,15.5,20.2
"22/06/13","24:00",0.0,20.0,77.4,1006.2,290.9,1.2,2.0,304.3,0.00,16.0,20.0
"22/06/14","01:00",0.0,21.1,80.5,1005.7,252.0,0.5,2.1,328.4,0.00,17.7,19.9
"22/06/14","02:00",0.0,21.5,78.6,1005.0,167.0,0.8,2.0,146.8,0.00,17.7,19.8
"22/06/14","03:00",0.0,21.3,78.6,1005.0,35.3,0.6,2.5,86.5,0.00,17.5,19.9